owner,sensor,date,latitude,longitude,sea_surface_height_above_sea_level,qcFlag 
COMPS,ioos:station:USF.COMPS:SHP:1,2009-02-01T00:00:00Z,30.0600,-84.2910,-0.027,1111122 
COMPS,ioos:station:USF.COMPS:SHP:1,2009-02-01T00:06:00Z,30.0600,-84.2910,-0.042,1111122 
COMPS,ioos:station:USF.COMPS:SHP:1,2009-02-01T00:12:00Z,30.0600,-84.2910,-0.061,1111122 
COMPS,ioos:station:USF.COMPS:SHP:1,2009-02-01T00:18:00Z,30.0600,-84.2910,-0.08,1111122 
COMPS,ioos:station:USF.COMPS:SHP:1,2009-02-01T00:24:00Z,30.0600,-84.2910,-0.099,1111122 
COMPS,ioos:station:USF.COMPS:SHP:1,2009-02-01T00:30:00Z,30.0600,-84.2910,-0.115,1111122 
COMPS,ioos:station:USF.COMPS:SHP:1,2009-02-01T00:36:00Z,30.0600,-84.2910,-0.134,1111122 
COMPS,ioos:station:USF.COMPS:SHP:1,2009-02-01T00:42:00Z,30.0600,-84.2910,-0.155,1111122 
COMPS,ioos:station:USF.COMPS:SHP:1,2009-02-01T00:48:00Z,30.0600,-84.2910,-0.173,1111122 
COMPS,ioos:station:USF.COMPS:SHP:1,2009-02-01T00:54:00Z,30.0600,-84.2910,-0.191,1111122 
COMPS,ioos:station:USF.COMPS:SHP:1,2009-02-01T01:00:00Z,30.0600,-84.2910,-0.211,1111122 
COMPS,ioos:station:USF.COMPS:SHP:1,2009-02-01T01:06:00Z,30.0600,-84.2910,-0.233,1111122 
COMPS,ioos:station:USF.COMPS:SHP:1,2009-02-01T01:12:00Z,30.0600,-84.2910,-0.253,1111122 
COMPS,ioos:station:USF.COMPS:SHP:1,2009-02-01T01:18:00Z,30.0600,-84.2910,-0.27,1111122 
COMPS,ioos:station:USF.COMPS:SHP:1,2009-02-01T01:24:00Z,30.0600,-84.2910,-0.291,1111122 
COMPS,ioos:station:USF.COMPS:SHP:1,2009-02-01T01:30:00Z,30.0600,-84.2910,-0.312,1111122 
COMPS,ioos:station:USF.COMPS:SHP:1,2009-02-01T01:36:00Z,30.0600,-84.2910,-0.333,1111122 
COMPS,ioos:station:USF.COMPS:SHP:1,2009-02-01T01:42:00Z,30.0600,-84.2910,-0.353,1111122 
COMPS,ioos:station:USF.COMPS:SHP:1,2009-02-01T01:48:00Z,30.0600,-84.2910,-0.372,1111122 
COMPS,ioos:station:USF.COMPS:SHP:1,2009-02-01T01:54:00Z,30.0600,-84.2910,-0.393,1111122 
COMPS,ioos:station:USF.COMPS:SHP:1,2009-02-01T02:00:00Z,30.0600,-84.2910,-0.414,1111122 
COMPS,ioos:station:USF.COMPS:SHP:1,2009-02-01T02:06:00Z,30.0600,-84.2910,-0.433,1111122 
COMPS,ioos:station:USF.COMPS:SHP:1,2009-02-01T02:12:00Z,30.0600,-84.2910,-0.451,1111122 
COMPS,ioos:station:USF.COMPS:SHP:1,2009-02-01T02:18:00Z,30.0600,-84.2910,-0.468,1111122 
COMPS,ioos:station:USF.COMPS:SHP:1,2009-02-01T02:24:00Z,30.0600,-84.2910,-0.487,1111122 
COMPS,ioos:station:USF.COMPS:SHP:1,2009-02-01T02:30:00Z,30.0600,-84.2910,-0.505,1111122 
COMPS,ioos:station:USF.COMPS:SHP:1,2009-02-01T02:36:00Z,30.0600,-84.2910,-0.522,1111122 
COMPS,ioos:station:USF.COMPS:SHP:1,2009-02-01T02:42:00Z,30.0600,-84.2910,-0.537,1111122 
COMPS,ioos:station:USF.COMPS:SHP:1,2009-02-01T02:48:00Z,30.0600,-84.2910,-0.55,1111122 
COMPS,ioos:station:USF.COMPS:SHP:1,2009-02-01T02:54:00Z,30.0600,-84.2910,-0.565,1111122 
COMPS,ioos:station:USF.COMPS:SHP:1,2009-02-01T03:00:00Z,30.0600,-84.2910,-0.579,1111122 
COMPS,ioos:station:USF.COMPS:SHP:1,2009-02-01T03:06:00Z,30.0600,-84.2910,-0.593,1111122 
COMPS,ioos:station:USF.COMPS:SHP:1,2009-02-01T03:12:00Z,30.0600,-84.2910,-0.607,1111122 
COMPS,ioos:station:USF.COMPS:SHP:1,2009-02-01T03:18:00Z,30.0600,-84.2910,-0.62,1111122 
COMPS,ioos:station:USF.COMPS:SHP:1,2009-02-01T03:24:00Z,30.0600,-84.2910,-0.633,1111122 
COMPS,ioos:station:USF.COMPS:SHP:1,2009-02-01T03:30:00Z,30.0600,-84.2910,-0.644,1111122 
COMPS,ioos:station:USF.COMPS:SHP:1,2009-02-01T03:36:00Z,30.0600,-84.2910,-0.654,1111122 
COMPS,ioos:station:USF.COMPS:SHP:1,2009-02-01T03:42:00Z,30.0600,-84.2910,-0.665,1111122 
COMPS,ioos:station:USF.COMPS:SHP:1,2009-02-01T03:48:00Z,30.0600,-84.2910,-0.674,1111122 
COMPS,ioos:station:USF.COMPS:SHP:1,2009-02-01T03:54:00Z,30.0600,-84.2910,-0.684,1111122 
COMPS,ioos:station:USF.COMPS:SHP:1,2009-02-01T04:00:00Z,30.0600,-84.2910,-0.692,1111122 
COMPS,ioos:station:USF.COMPS:SHP:1,2009-02-01T04:06:00Z,30.0600,-84.2910,-0.696,1111122 
COMPS,ioos:station:USF.COMPS:SHP:1,2009-02-01T04:12:00Z,30.0600,-84.2910,-0.698,1111122 
COMPS,ioos:station:USF.COMPS:SHP:1,2009-02-01T04:18:00Z,30.0600,-84.2910,-0.701,1111122 
COMPS,ioos:station:USF.COMPS:SHP:1,2009-02-01T04:24:00Z,30.0600,-84.2910,-0.702,1111122 
COMPS,ioos:station:USF.COMPS:SHP:1,2009-02-01T04:30:00Z,30.0600,-84.2910,-0.699,1111122 
COMPS,ioos:station:USF.COMPS:SHP:1,2009-02-01T04:36:00Z,30.0600,-84.2910,-0.697,1111122 
COMPS,ioos:station:USF.COMPS:SHP:1,2009-02-01T04:42:00Z,30.0600,-84.2910,-0.693,1111122 
COMPS,ioos:station:USF.COMPS:SHP:1,2009-02-01T04:48:00Z,30.0600,-84.2910,-0.692,1111122 
COMPS,ioos:station:USF.COMPS:SHP:1,2009-02-01T04:54:00Z,30.0600,-84.2910,-0.693,1111122 
COMPS,ioos:station:USF.COMPS:SHP:1,2009-02-01T05:00:00Z,30.0600,-84.2910,-0.693,1111122 
COMPS,ioos:station:USF.COMPS:SHP:1,2009-02-01T05:06:00Z,30.0600,-84.2910,-0.691,1111122 
COMPS,ioos:station:USF.COMPS:SHP:1,2009-02-01T05:12:00Z,30.0600,-84.2910,-0.689,1111122 
COMPS,ioos:station:USF.COMPS:SHP:1,2009-02-01T05:18:00Z,30.0600,-84.2910,-0.687,1111122 
COMPS,ioos:station:USF.COMPS:SHP:1,2009-02-01T05:24:00Z,30.0600,-84.2910,-0.681,1111122 
COMPS,ioos:station:USF.COMPS:SHP:1,2009-02-01T05:30:00Z,30.0600,-84.2910,-0.675,1111122 
COMPS,ioos:station:USF.COMPS:SHP:1,2009-02-01T05:36:00Z,30.0600,-84.2910,-0.669,1111122 
COMPS,ioos:station:USF.COMPS:SHP:1,2009-02-01T05:42:00Z,30.0600,-84.2910,-0.66,1111122 
COMPS,ioos:station:USF.COMPS:SHP:1,2009-02-01T05:48:00Z,30.0600,-84.2910,-0.649,1111122 
COMPS,ioos:station:USF.COMPS:SHP:1,2009-02-01T05:54:00Z,30.0600,-84.2910,-0.638,1111122 
COMPS,ioos:station:USF.COMPS:SHP:1,2009-02-01T06:00:00Z,30.0600,-84.2910,-0.629,1111122 
COMPS,ioos:station:USF.COMPS:SHP:1,2009-02-01T06:06:00Z,30.0600,-84.2910,-0.62,1111122 
COMPS,ioos:station:USF.COMPS:SHP:1,2009-02-01T06:12:00Z,30.0600,-84.2910,-0.61,1111122 
COMPS,ioos:station:USF.COMPS:SHP:1,2009-02-01T06:18:00Z,30.0600,-84.2910,-0.603,1111122 
COMPS,ioos:station:USF.COMPS:SHP:1,2009-02-01T06:24:00Z,30.0600,-84.2910,-0.596,1111122 
COMPS,ioos:station:USF.COMPS:SHP:1,2009-02-01T06:30:00Z,30.0600,-84.2910,-0.585,1111122 
COMPS,ioos:station:USF.COMPS:SHP:1,2009-02-01T06:36:00Z,30.0600,-84.2910,-0.573,1111122 
COMPS,ioos:station:USF.COMPS:SHP:1,2009-02-01T06:42:00Z,30.0600,-84.2910,-0.564,1111122 
COMPS,ioos:station:USF.COMPS:SHP:1,2009-02-01T06:48:00Z,30.0600,-84.2910,-0.551,1111122 
COMPS,ioos:station:USF.COMPS:SHP:1,2009-02-01T06:54:00Z,30.0600,-84.2910,-0.537,1111122 
COMPS,ioos:station:USF.COMPS:SHP:1,2009-02-01T07:00:00Z,30.0600,-84.2910,-0.523,1111122 
COMPS,ioos:station:USF.COMPS:SHP:1,2009-02-01T07:06:00Z,30.0600,-84.2910,-0.51,1111122 
COMPS,ioos:station:USF.COMPS:SHP:1,2009-02-01T07:12:00Z,30.0600,-84.2910,-0.494,1111122 
COMPS,ioos:station:USF.COMPS:SHP:1,2009-02-01T07:18:00Z,30.0600,-84.2910,-0.476,1111122 
COMPS,ioos:station:USF.COMPS:SHP:1,2009-02-01T07:24:00Z,30.0600,-84.2910,-0.459,1111122 
COMPS,ioos:station:USF.COMPS:SHP:1,2009-02-01T07:30:00Z,30.0600,-84.2910,-0.44,1111122 
COMPS,ioos:station:USF.COMPS:SHP:1,2009-02-01T07:36:00Z,30.0600,-84.2910,-0.421,1111122 
COMPS,ioos:station:USF.COMPS:SHP:1,2009-02-01T07:42:00Z,30.0600,-84.2910,-0.403,1111122 
COMPS,ioos:station:USF.COMPS:SHP:1,2009-02-01T07:48:00Z,30.0600,-84.2910,-0.386,1111122 
COMPS,ioos:station:USF.COMPS:SHP:1,2009-02-01T07:54:00Z,30.0600,-84.2910,-0.367,1111122 
COMPS,ioos:station:USF.COMPS:SHP:1,2009-02-01T08:00:00Z,30.0600,-84.2910,-0.348,1111122 
COMPS,ioos:station:USF.COMPS:SHP:1,2009-02-01T08:06:00Z,30.0600,-84.2910,-0.327,1111122 
COMPS,ioos:station:USF.COMPS:SHP:1,2009-02-01T08:12:00Z,30.0600,-84.2910,-0.304,1111122 
COMPS,ioos:station:USF.COMPS:SHP:1,2009-02-01T08:18:00Z,30.0600,-84.2910,-0.283,1111122 
COMPS,ioos:station:USF.COMPS:SHP:1,2009-02-01T08:24:00Z,30.0600,-84.2910,-0.264,1111122 
COMPS,ioos:station:USF.COMPS:SHP:1,2009-02-01T08:30:00Z,30.0600,-84.2910,-0.244,1111122 
COMPS,ioos:station:USF.COMPS:SHP:1,2009-02-01T08:36:00Z,30.0600,-84.2910,-0.225,1111122 
COMPS,ioos:station:USF.COMPS:SHP:1,2009-02-01T08:42:00Z,30.0600,-84.2910,-0.206,1111122 
COMPS,ioos:station:USF.COMPS:SHP:1,2009-02-01T08:48:00Z,30.0600,-84.2910,-0.187,1111122 
COMPS,ioos:station:USF.COMPS:SHP:1,2009-02-01T08:54:00Z,30.0600,-84.2910,-0.17,1111122 
COMPS,ioos:station:USF.COMPS:SHP:1,2009-02-01T09:00:00Z,30.0600,-84.2910,-0.153,1111122 
COMPS,ioos:station:USF.COMPS:SHP:1,2009-02-01T09:06:00Z,30.0600,-84.2910,-0.136,1111122 
COMPS,ioos:station:USF.COMPS:SHP:1,2009-02-01T09:12:00Z,30.0600,-84.2910,-0.117,1111122 
COMPS,ioos:station:USF.COMPS:SHP:1,2009-02-01T09:18:00Z,30.0600,-84.2910,-0.101,1111122 
COMPS,ioos:station:USF.COMPS:SHP:1,2009-02-01T09:24:00Z,30.0600,-84.2910,-0.088,1111122 
COMPS,ioos:station:USF.COMPS:SHP:1,2009-02-01T09:30:00Z,30.0600,-84.2910,-0.077,1111122 
COMPS,ioos:station:USF.COMPS:SHP:1,2009-02-01T09:36:00Z,30.0600,-84.2910,-0.062,1111122 
COMPS,ioos:station:USF.COMPS:SHP:1,2009-02-01T09:42:00Z,30.0600,-84.2910,-0.043,1111122 
COMPS,ioos:station:USF.COMPS:SHP:1,2009-02-01T09:48:00Z,30.0600,-84.2910,-0.024,1111122 
COMPS,ioos:station:USF.COMPS:SHP:1,2009-02-01T09:54:00Z,30.0600,-84.2910,-0.01,1111122 
COMPS,ioos:station:USF.COMPS:SHP:1,2009-02-01T10:00:00Z,30.0600,-84.2910,0.0,1114422 
COMPS,ioos:station:USF.COMPS:SHP:1,2009-02-01T10:06:00Z,30.0600,-84.2910,0.009,1111122 
COMPS,ioos:station:USF.COMPS:SHP:1,2009-02-01T10:12:00Z,30.0600,-84.2910,0.017,1111122 
COMPS,ioos:station:USF.COMPS:SHP:1,2009-02-01T10:18:00Z,30.0600,-84.2910,0.029,1111122 
COMPS,ioos:station:USF.COMPS:SHP:1,2009-02-01T10:24:00Z,30.0600,-84.2910,0.04,1111122 
COMPS,ioos:station:USF.COMPS:SHP:1,2009-02-01T10:30:00Z,30.0600,-84.2910,0.047,1111122 
COMPS,ioos:station:USF.COMPS:SHP:1,2009-02-01T10:36:00Z,30.0600,-84.2910,0.052,1111122 
COMPS,ioos:station:USF.COMPS:SHP:1,2009-02-01T10:42:00Z,30.0600,-84.2910,0.06,1111122 
COMPS,ioos:station:USF.COMPS:SHP:1,2009-02-01T10:48:00Z,30.0600,-84.2910,0.066,1111122 
COMPS,ioos:station:USF.COMPS:SHP:1,2009-02-01T10:54:00Z,30.0600,-84.2910,0.068,1111122 
COMPS,ioos:station:USF.COMPS:SHP:1,2009-02-01T11:00:00Z,30.0600,-84.2910,0.064,1111122 
COMPS,ioos:station:USF.COMPS:SHP:1,2009-02-01T11:06:00Z,30.0600,-84.2910,0.059,1111122 
COMPS,ioos:station:USF.COMPS:SHP:1,2009-02-01T11:12:00Z,30.0600,-84.2910,0.064,1111122 
COMPS,ioos:station:USF.COMPS:SHP:1,2009-02-01T11:18:00Z,30.0600,-84.2910,0.072,1111122 
COMPS,ioos:station:USF.COMPS:SHP:1,2009-02-01T11:24:00Z,30.0600,-84.2910,0.073,1111122 
COMPS,ioos:station:USF.COMPS:SHP:1,2009-02-01T11:30:00Z,30.0600,-84.2910,0.06,1111122 
COMPS,ioos:station:USF.COMPS:SHP:1,2009-02-01T11:36:00Z,30.0600,-84.2910,0.054,1111122 
COMPS,ioos:station:USF.COMPS:SHP:1,2009-02-01T11:42:00Z,30.0600,-84.2910,0.055,1111122 
COMPS,ioos:station:USF.COMPS:SHP:1,2009-02-01T11:48:00Z,30.0600,-84.2910,0.049,1111122 
COMPS,ioos:station:USF.COMPS:SHP:1,2009-02-01T11:54:00Z,30.0600,-84.2910,0.042,1111122 
COMPS,ioos:station:USF.COMPS:SHP:1,2009-02-01T12:00:00Z,30.0600,-84.2910,0.038,1111122 
COMPS,ioos:station:USF.COMPS:SHP:1,2009-02-01T12:06:00Z,30.0600,-84.2910,0.033,1111122 
COMPS,ioos:station:USF.COMPS:SHP:1,2009-02-01T12:12:00Z,30.0600,-84.2910,0.019,1111122 
COMPS,ioos:station:USF.COMPS:SHP:1,2009-02-01T12:18:00Z,30.0600,-84.2910,0.01,1111122 
COMPS,ioos:station:USF.COMPS:SHP:1,2009-02-01T12:24:00Z,30.0600,-84.2910,0.003,1111122 
COMPS,ioos:station:USF.COMPS:SHP:1,2009-02-01T12:30:00Z,30.0600,-84.2910,-0.008,1111122 
COMPS,ioos:station:USF.COMPS:SHP:1,2009-02-01T12:36:00Z,30.0600,-84.2910,-0.019,1111122 
COMPS,ioos:station:USF.COMPS:SHP:1,2009-02-01T12:42:00Z,30.0600,-84.2910,-0.029,1111122 
COMPS,ioos:station:USF.COMPS:SHP:1,2009-02-01T12:48:00Z,30.0600,-84.2910,-0.031,1111122 
COMPS,ioos:station:USF.COMPS:SHP:1,2009-02-01T12:54:00Z,30.0600,-84.2910,-0.04,1111122 
COMPS,ioos:station:USF.COMPS:SHP:1,2009-02-01T13:00:00Z,30.0600,-84.2910,-0.051,1111122 
COMPS,ioos:station:USF.COMPS:SHP:1,2009-02-01T13:06:00Z,30.0600,-84.2910,-0.063,1111122 
COMPS,ioos:station:USF.COMPS:SHP:1,2009-02-01T13:12:00Z,30.0600,-84.2910,-0.08,1111122 
COMPS,ioos:station:USF.COMPS:SHP:1,2009-02-01T13:18:00Z,30.0600,-84.2910,-0.092,1111122 
COMPS,ioos:station:USF.COMPS:SHP:1,2009-02-01T13:24:00Z,30.0600,-84.2910,-0.103,1111122 
COMPS,ioos:station:USF.COMPS:SHP:1,2009-02-01T13:30:00Z,30.0600,-84.2910,-0.114,1111122 
COMPS,ioos:station:USF.COMPS:SHP:1,2009-02-01T13:36:00Z,30.0600,-84.2910,-0.129,1111122 
COMPS,ioos:station:USF.COMPS:SHP:1,2009-02-01T13:42:00Z,30.0600,-84.2910,-0.139,1111122 
COMPS,ioos:station:USF.COMPS:SHP:1,2009-02-01T13:48:00Z,30.0600,-84.2910,-0.147,1111122 
COMPS,ioos:station:USF.COMPS:SHP:1,2009-02-01T13:54:00Z,30.0600,-84.2910,-0.159,1111122 
COMPS,ioos:station:USF.COMPS:SHP:1,2009-02-01T14:00:00Z,30.0600,-84.2910,-0.167,1111122 
COMPS,ioos:station:USF.COMPS:SHP:1,2009-02-01T14:06:00Z,30.0600,-84.2910,-0.181,1111122 
COMPS,ioos:station:USF.COMPS:SHP:1,2009-02-01T14:12:00Z,30.0600,-84.2910,-0.197,1111122 
COMPS,ioos:station:USF.COMPS:SHP:1,2009-02-01T14:18:00Z,30.0600,-84.2910,-0.212,1111122 
COMPS,ioos:station:USF.COMPS:SHP:1,2009-02-01T14:24:00Z,30.0600,-84.2910,-0.224,1111122 
COMPS,ioos:station:USF.COMPS:SHP:1,2009-02-01T14:30:00Z,30.0600,-84.2910,-0.228,1111122 
COMPS,ioos:station:USF.COMPS:SHP:1,2009-02-01T14:36:00Z,30.0600,-84.2910,-0.231,1111122 
COMPS,ioos:station:USF.COMPS:SHP:1,2009-02-01T14:42:00Z,30.0600,-84.2910,-0.243,1111122 
COMPS,ioos:station:USF.COMPS:SHP:1,2009-02-01T14:48:00Z,30.0600,-84.2910,-0.257,1111122 
COMPS,ioos:station:USF.COMPS:SHP:1,2009-02-01T14:54:00Z,30.0600,-84.2910,-0.266,1111122 
COMPS,ioos:station:USF.COMPS:SHP:1,2009-02-01T15:00:00Z,30.0600,-84.2910,-0.267,1111122 
COMPS,ioos:station:USF.COMPS:SHP:1,2009-02-01T15:06:00Z,30.0600,-84.2910,-0.265,1111122 
COMPS,ioos:station:USF.COMPS:SHP:1,2009-02-01T15:12:00Z,30.0600,-84.2910,-0.266,1111122 
COMPS,ioos:station:USF.COMPS:SHP:1,2009-02-01T15:18:00Z,30.0600,-84.2910,-0.265,1111122 
COMPS,ioos:station:USF.COMPS:SHP:1,2009-02-01T15:24:00Z,30.0600,-84.2910,-0.268,1111122 
COMPS,ioos:station:USF.COMPS:SHP:1,2009-02-01T15:30:00Z,30.0600,-84.2910,-0.274,1111122 
COMPS,ioos:station:USF.COMPS:SHP:1,2009-02-01T15:36:00Z,30.0600,-84.2910,-0.274,1111122 
COMPS,ioos:station:USF.COMPS:SHP:1,2009-02-01T15:42:00Z,30.0600,-84.2910,-0.267,1111122 
COMPS,ioos:station:USF.COMPS:SHP:1,2009-02-01T15:48:00Z,30.0600,-84.2910,-0.258,1111122 
COMPS,ioos:station:USF.COMPS:SHP:1,2009-02-01T15:54:00Z,30.0600,-84.2910,-0.25,1111122 
COMPS,ioos:station:USF.COMPS:SHP:1,2009-02-01T16:00:00Z,30.0600,-84.2910,-0.249,1111122 
COMPS,ioos:station:USF.COMPS:SHP:1,2009-02-01T16:06:00Z,30.0600,-84.2910,-0.255,1111122 
COMPS,ioos:station:USF.COMPS:SHP:1,2009-02-01T16:12:00Z,30.0600,-84.2910,-0.258,1111122 
COMPS,ioos:station:USF.COMPS:SHP:1,2009-02-01T16:18:00Z,30.0600,-84.2910,-0.254,1111122 
COMPS,ioos:station:USF.COMPS:SHP:1,2009-02-01T16:24:00Z,30.0600,-84.2910,-0.241,1111122 
COMPS,ioos:station:USF.COMPS:SHP:1,2009-02-01T16:30:00Z,30.0600,-84.2910,-0.233,1111122 
COMPS,ioos:station:USF.COMPS:SHP:1,2009-02-01T16:36:00Z,30.0600,-84.2910,-0.231,1111122 
COMPS,ioos:station:USF.COMPS:SHP:1,2009-02-01T16:42:00Z,30.0600,-84.2910,-0.228,1111122 
COMPS,ioos:station:USF.COMPS:SHP:1,2009-02-01T16:48:00Z,30.0600,-84.2910,-0.221,1111122 
COMPS,ioos:station:USF.COMPS:SHP:1,2009-02-01T16:54:00Z,30.0600,-84.2910,-0.222,1111122 
COMPS,ioos:station:USF.COMPS:SHP:1,2009-02-01T17:00:00Z,30.0600,-84.2910,-0.221,1111122 
COMPS,ioos:station:USF.COMPS:SHP:1,2009-02-01T17:06:00Z,30.0600,-84.2910,-0.211,1111122 
COMPS,ioos:station:USF.COMPS:SHP:1,2009-02-01T17:12:00Z,30.0600,-84.2910,-0.204,1111122 
COMPS,ioos:station:USF.COMPS:SHP:1,2009-02-01T17:18:00Z,30.0600,-84.2910,-0.196,1111122 
COMPS,ioos:station:USF.COMPS:SHP:1,2009-02-01T17:24:00Z,30.0600,-84.2910,-0.183,1111122 
COMPS,ioos:station:USF.COMPS:SHP:1,2009-02-01T17:30:00Z,30.0600,-84.2910,-0.177,1111122 
COMPS,ioos:station:USF.COMPS:SHP:1,2009-02-01T17:36:00Z,30.0600,-84.2910,-0.176,1111122 
COMPS,ioos:station:USF.COMPS:SHP:1,2009-02-01T17:42:00Z,30.0600,-84.2910,-0.169,1111122 
COMPS,ioos:station:USF.COMPS:SHP:1,2009-02-01T17:48:00Z,30.0600,-84.2910,-0.164,1111122 
COMPS,ioos:station:USF.COMPS:SHP:1,2009-02-01T17:54:00Z,30.0600,-84.2910,-0.157,1111122 
COMPS,ioos:station:USF.COMPS:SHP:1,2009-02-01T18:00:00Z,30.0600,-84.2910,-0.141,1111122 
COMPS,ioos:station:USF.COMPS:SHP:1,2009-02-01T18:06:00Z,30.0600,-84.2910,-0.124,1111122 
COMPS,ioos:station:USF.COMPS:SHP:1,2009-02-01T18:12:00Z,30.0600,-84.2910,-0.108,1111122 
COMPS,ioos:station:USF.COMPS:SHP:1,2009-02-01T18:18:00Z,30.0600,-84.2910,-0.096,1111122 
COMPS,ioos:station:USF.COMPS:SHP:1,2009-02-01T18:24:00Z,30.0600,-84.2910,-0.081,1111122 
COMPS,ioos:station:USF.COMPS:SHP:1,2009-02-01T18:30:00Z,30.0600,-84.2910,-0.068,1111122 
COMPS,ioos:station:USF.COMPS:SHP:1,2009-02-01T18:36:00Z,30.0600,-84.2910,-0.057,1111122 
COMPS,ioos:station:USF.COMPS:SHP:1,2009-02-01T18:42:00Z,30.0600,-84.2910,-0.042,1111122 
COMPS,ioos:station:USF.COMPS:SHP:1,2009-02-01T18:48:00Z,30.0600,-84.2910,-0.023,1111122 
COMPS,ioos:station:USF.COMPS:SHP:1,2009-02-01T18:54:00Z,30.0600,-84.2910,-0.007,1111122 
COMPS,ioos:station:USF.COMPS:SHP:1,2009-02-01T19:00:00Z,30.0600,-84.2910,0.005,1111122 
COMPS,ioos:station:USF.COMPS:SHP:1,2009-02-01T19:06:00Z,30.0600,-84.2910,0.016,1111122 
COMPS,ioos:station:USF.COMPS:SHP:1,2009-02-01T19:12:00Z,30.0600,-84.2910,0.028,1111122 
COMPS,ioos:station:USF.COMPS:SHP:1,2009-02-01T19:18:00Z,30.0600,-84.2910,0.04,1111122 
COMPS,ioos:station:USF.COMPS:SHP:1,2009-02-01T19:24:00Z,30.0600,-84.2910,0.05,1111122 
COMPS,ioos:station:USF.COMPS:SHP:1,2009-02-01T19:30:00Z,30.0600,-84.2910,0.059,1111122 
COMPS,ioos:station:USF.COMPS:SHP:1,2009-02-01T19:36:00Z,30.0600,-84.2910,0.078,1111122 
COMPS,ioos:station:USF.COMPS:SHP:1,2009-02-01T19:42:00Z,30.0600,-84.2910,0.096,1111122 
COMPS,ioos:station:USF.COMPS:SHP:1,2009-02-01T19:48:00Z,30.0600,-84.2910,0.111,1111122 
COMPS,ioos:station:USF.COMPS:SHP:1,2009-02-01T19:54:00Z,30.0600,-84.2910,0.123,1111122 
COMPS,ioos:station:USF.COMPS:SHP:1,2009-02-01T20:00:00Z,30.0600,-84.2910,0.133,1111122 
COMPS,ioos:station:USF.COMPS:SHP:1,2009-02-01T20:06:00Z,30.0600,-84.2910,0.149,1111122 
COMPS,ioos:station:USF.COMPS:SHP:1,2009-02-01T20:12:00Z,30.0600,-84.2910,0.166,1111122 
COMPS,ioos:station:USF.COMPS:SHP:1,2009-02-01T20:18:00Z,30.0600,-84.2910,0.184,1111122 
COMPS,ioos:station:USF.COMPS:SHP:1,2009-02-01T20:24:00Z,30.0600,-84.2910,0.202,1111122 
COMPS,ioos:station:USF.COMPS:SHP:1,2009-02-01T20:30:00Z,30.0600,-84.2910,0.213,1111122 
COMPS,ioos:station:USF.COMPS:SHP:1,2009-02-01T20:36:00Z,30.0600,-84.2910,0.221,1111122 
COMPS,ioos:station:USF.COMPS:SHP:1,2009-02-01T20:42:00Z,30.0600,-84.2910,0.226,1111122 
COMPS,ioos:station:USF.COMPS:SHP:1,2009-02-01T20:48:00Z,30.0600,-84.2910,0.236,1111122 
COMPS,ioos:station:USF.COMPS:SHP:1,2009-02-01T20:54:00Z,30.0600,-84.2910,0.253,1111122 
COMPS,ioos:station:USF.COMPS:SHP:1,2009-02-01T21:00:00Z,30.0600,-84.2910,0.268,1111122 
COMPS,ioos:station:USF.COMPS:SHP:1,2009-02-01T21:06:00Z,30.0600,-84.2910,0.273,1111122 
COMPS,ioos:station:USF.COMPS:SHP:1,2009-02-01T21:12:00Z,30.0600,-84.2910,0.281,1111122 
COMPS,ioos:station:USF.COMPS:SHP:1,2009-02-01T21:18:00Z,30.0600,-84.2910,0.291,1111122 
COMPS,ioos:station:USF.COMPS:SHP:1,2009-02-01T21:24:00Z,30.0600,-84.2910,0.299,1111122 
COMPS,ioos:station:USF.COMPS:SHP:1,2009-02-01T21:30:00Z,30.0600,-84.2910,0.311,1111122 
COMPS,ioos:station:USF.COMPS:SHP:1,2009-02-01T21:36:00Z,30.0600,-84.2910,0.318,1111122 
COMPS,ioos:station:USF.COMPS:SHP:1,2009-02-01T21:42:00Z,30.0600,-84.2910,0.323,1111122 
COMPS,ioos:station:USF.COMPS:SHP:1,2009-02-01T21:48:00Z,30.0600,-84.2910,0.33,1111122 
COMPS,ioos:station:USF.COMPS:SHP:1,2009-02-01T21:54:00Z,30.0600,-84.2910,0.338,1111122 
COMPS,ioos:station:USF.COMPS:SHP:1,2009-02-01T22:00:00Z,30.0600,-84.2910,0.348,1111122 
COMPS,ioos:station:USF.COMPS:SHP:1,2009-02-01T22:06:00Z,30.0600,-84.2910,0.356,1111122 
COMPS,ioos:station:USF.COMPS:SHP:1,2009-02-01T22:12:00Z,30.0600,-84.2910,0.355,1111122 
COMPS,ioos:station:USF.COMPS:SHP:1,2009-02-01T22:18:00Z,30.0600,-84.2910,0.353,1111122 
COMPS,ioos:station:USF.COMPS:SHP:1,2009-02-01T22:24:00Z,30.0600,-84.2910,0.351,1111122 
COMPS,ioos:station:USF.COMPS:SHP:1,2009-02-01T22:30:00Z,30.0600,-84.2910,0.354,1111122 
COMPS,ioos:station:USF.COMPS:SHP:1,2009-02-01T22:36:00Z,30.0600,-84.2910,0.359,1111122 
COMPS,ioos:station:USF.COMPS:SHP:1,2009-02-01T22:42:00Z,30.0600,-84.2910,0.361,1111122 
COMPS,ioos:station:USF.COMPS:SHP:1,2009-02-01T22:48:00Z,30.0600,-84.2910,0.362,1111122 
COMPS,ioos:station:USF.COMPS:SHP:1,2009-02-01T22:54:00Z,30.0600,-84.2910,0.364,1111122 
COMPS,ioos:station:USF.COMPS:SHP:1,2009-02-01T23:00:00Z,30.0600,-84.2910,0.356,1111122 
COMPS,ioos:station:USF.COMPS:SHP:1,2009-02-01T23:06:00Z,30.0600,-84.2910,0.343,1111122 
COMPS,ioos:station:USF.COMPS:SHP:1,2009-02-01T23:12:00Z,30.0600,-84.2910,0.342,1111122 
COMPS,ioos:station:USF.COMPS:SHP:1,2009-02-01T23:18:00Z,30.0600,-84.2910,0.348,1111122 
COMPS,ioos:station:USF.COMPS:SHP:1,2009-02-01T23:24:00Z,30.0600,-84.2910,0.345,1111122 
COMPS,ioos:station:USF.COMPS:SHP:1,2009-02-01T23:30:00Z,30.0600,-84.2910,0.339,1111122 
COMPS,ioos:station:USF.COMPS:SHP:1,2009-02-01T23:36:00Z,30.0600,-84.2910,0.333,1111122 
COMPS,ioos:station:USF.COMPS:SHP:1,2009-02-01T23:42:00Z,30.0600,-84.2910,0.315,1111122 
COMPS,ioos:station:USF.COMPS:SHP:1,2009-02-01T23:48:00Z,30.0600,-84.2910,0.301,1111122 
COMPS,ioos:station:USF.COMPS:SHP:1,2009-02-01T23:54:00Z,30.0600,-84.2910,0.291,1111122 
COMPS,ioos:station:USF.COMPS:SHP:1,2009-02-02T00:00:00Z,30.0600,-84.2910,0.28,1111122 
COMPS,ioos:station:USF.COMPS:SHP:1,2009-02-02T00:06:00Z,30.0600,-84.2910,0.262,1111122 
COMPS,ioos:station:USF.COMPS:SHP:1,2009-02-02T00:12:00Z,30.0600,-84.2910,0.25,1111122 
COMPS,ioos:station:USF.COMPS:SHP:1,2009-02-02T00:18:00Z,30.0600,-84.2910,0.235,1111122 
COMPS,ioos:station:USF.COMPS:SHP:1,2009-02-02T00:24:00Z,30.0600,-84.2910,0.216,1111122 
COMPS,ioos:station:USF.COMPS:SHP:1,2009-02-02T00:30:00Z,30.0600,-84.2910,0.195,1111122 
COMPS,ioos:station:USF.COMPS:SHP:1,2009-02-02T00:36:00Z,30.0600,-84.2910,0.176,1111122 
COMPS,ioos:station:USF.COMPS:SHP:1,2009-02-02T00:42:00Z,30.0600,-84.2910,0.162,1111122 
COMPS,ioos:station:USF.COMPS:SHP:1,2009-02-02T00:48:00Z,30.0600,-84.2910,0.145,1111122 
COMPS,ioos:station:USF.COMPS:SHP:1,2009-02-02T00:54:00Z,30.0600,-84.2910,0.125,1111122 
COMPS,ioos:station:USF.COMPS:SHP:1,2009-02-02T01:00:00Z,30.0600,-84.2910,0.103,1111122 
COMPS,ioos:station:USF.COMPS:SHP:1,2009-02-02T01:06:00Z,30.0600,-84.2910,0.081,1111122 
COMPS,ioos:station:USF.COMPS:SHP:1,2009-02-02T01:12:00Z,30.0600,-84.2910,0.062,1111122 
COMPS,ioos:station:USF.COMPS:SHP:1,2009-02-02T01:18:00Z,30.0600,-84.2910,0.043,1111122 
COMPS,ioos:station:USF.COMPS:SHP:1,2009-02-02T01:24:00Z,30.0600,-84.2910,0.02,1111122 
COMPS,ioos:station:USF.COMPS:SHP:1,2009-02-02T01:30:00Z,30.0600,-84.2910,0.0,1114422 
COMPS,ioos:station:USF.COMPS:SHP:1,2009-02-02T01:36:00Z,30.0600,-84.2910,-0.015,1111122 
COMPS,ioos:station:USF.COMPS:SHP:1,2009-02-02T01:42:00Z,30.0600,-84.2910,-0.033,1111122 
COMPS,ioos:station:USF.COMPS:SHP:1,2009-02-02T01:48:00Z,30.0600,-84.2910,-0.057,1111122 
COMPS,ioos:station:USF.COMPS:SHP:1,2009-02-02T01:54:00Z,30.0600,-84.2910,-0.077,1111122 
COMPS,ioos:station:USF.COMPS:SHP:1,2009-02-02T02:00:00Z,30.0600,-84.2910,-0.093,1111122 
COMPS,ioos:station:USF.COMPS:SHP:1,2009-02-02T02:06:00Z,30.0600,-84.2910,-0.112,1111122 
COMPS,ioos:station:USF.COMPS:SHP:1,2009-02-02T02:12:00Z,30.0600,-84.2910,-0.132,1111122 
COMPS,ioos:station:USF.COMPS:SHP:1,2009-02-02T02:18:00Z,30.0600,-84.2910,-0.153,1111122 
COMPS,ioos:station:USF.COMPS:SHP:1,2009-02-02T02:24:00Z,30.0600,-84.2910,-0.173,1111122 
COMPS,ioos:station:USF.COMPS:SHP:1,2009-02-02T02:30:00Z,30.0600,-84.2910,-0.194,1111122 
COMPS,ioos:station:USF.COMPS:SHP:1,2009-02-02T02:36:00Z,30.0600,-84.2910,-0.216,1111122 
COMPS,ioos:station:USF.COMPS:SHP:1,2009-02-02T02:42:00Z,30.0600,-84.2910,-0.235,1111122 
COMPS,ioos:station:USF.COMPS:SHP:1,2009-02-02T02:48:00Z,30.0600,-84.2910,-0.251,1111122 
COMPS,ioos:station:USF.COMPS:SHP:1,2009-02-02T02:54:00Z,30.0600,-84.2910,-0.269,1111122 